Weather History for Valparaiso, IN

Change the Weather History Date:

Thursday, November 8, 2012

  Actual Average Record
Temperature  
Mean Temperature 38 °F 44 °F  
Max Temperature 45 °F 53 °F 73 °F (1999)
Min Temperature 30 °F 36 °F 23 °F (2003)
Degree Days  
Heating Degree Days 27 21  
Month to date heating degree days 210 154  
Since 1 July heating degree days 777 684  
Cooling Degree Days 0 0  
Month to date cooling degree days 0 0  
Year to date cooling degree days 1054 713  
Moisture  
Dew Point 33 °F    
Average Humidity 88    
Maximum Humidity 100    
Minimum Humidity 68    
Precipitation  
Precipitation 0.00 in 0.11 in 0.36 in (2011)
Month to date precipitation 0.07 1.03  
Year to date precipitation 23.98 33.03  
Sea Level Pressure  
Sea Level Pressure 30.18 in    
Wind  
Wind Speed 4 mph (SSW)    
Max Wind Speed 13 mph    
Max Gust Speed 15 mph    
Visibility 4 miles    
Events Fog    
T = Trace of Precipitation, MM = Missing Value Source: NWS Daily Summary

Daily Weather History Graph

Daily Weather History Graph

Search for Another Location

Airport:

Trip Planner

Search our weather history database for the weather conditions in past years. The results will help you decide how hot, cold, wet, or windy it might be!

Date:

Astronomy

Nov. 08, 2012 Rise Set
Actual Time 6:28 AM CST 4:34 PM CST
Civil Twilight 5:59 AM CST 5:03 PM CST
Nautical Twilight 5:26 AM CST 5:36 PM CST
Astronomical Twilight 4:53 AM CST 6:09 PM CST
Moon 12:19 AM CST (11/8) 1:18 PM CST (11/8)
Length of Visible Light 11h 04m
Length of Day
10h 05m
Waning Crescent, 32% of the Moon is Illuminated
Nov 8
Waning Crescent
Nov 13
New
Nov 20
First Quarter
Nov 28
Full
Dec 6
Last Quarter

Hourly Weather History & Observations

Time (CST) Temp. Windchill Dew Point Humidity Pressure Visibility Wind Dir Wind Speed Gust Speed Precip Events Conditions
12:18 AM 32.0 °F - 30.2 °F 93% 30.16 in 3.0 mi Calm Calm - N/A   Clear
12:38 AM 30.2 °F - 30.2 °F 100% 30.16 in 2.5 mi Calm Calm - N/A   Clear
1:04 AM 30.2 °F 25.4 °F 30.2 °F 100% 30.16 in 2.5 mi West 4.6 mph - N/A   Clear
1:17 AM 30.2 °F 26.7 °F 28.4 °F 93% 30.17 in 3.0 mi West 3.5 mph - N/A   Clear
1:26 AM 32.0 °F - 30.2 °F 93% 30.17 in 2.5 mi Calm Calm - N/A   Clear
1:46 AM 32.0 °F - 28.4 °F 87% 30.17 in 1.5 mi Calm Calm - N/A   Clear
1:53 AM 33.1 °F - 32.0 °F 96% 30.18 in 1.2 mi Calm Calm - N/A   Clear
2:05 AM 30.2 °F - 30.2 °F 100% 30.17 in 0.5 mi Calm Calm - N/A Fog Light Freezing Fog
2:44 AM 30.2 °F - 28.4 °F 93% 30.17 in 2.0 mi Calm Calm - N/A   Scattered Clouds
2:53 AM 32.0 °F - 28.9 °F 88% 30.19 in 1.5 mi Calm Calm - N/A   Mostly Cloudy
3:10 AM 30.2 °F - 30.2 °F 100% 30.17 in 0.5 mi Calm Calm - N/A Fog Light Freezing Fog
3:27 AM 30.2 °F - 30.2 °F 100% 30.17 in 1.5 mi Calm Calm - N/A   Overcast
3:40 AM 32.0 °F - 30.2 °F 93% 30.17 in 2.5 mi Calm Calm - N/A   Overcast
3:53 AM 32.0 °F - 30.0 °F 92% 30.19 in 2.5 mi Calm Calm - N/A   Overcast
4:01 AM 32.0 °F - 30.2 °F 93% 30.18 in 3.0 mi Calm Calm - N/A   Overcast
4:53 AM 34.0 °F - 32.0 °F 92% 30.21 in 4.0 mi Calm Calm - N/A   Overcast
5:53 AM 37.0 °F - 36.0 °F 96% 30.21 in 3.0 mi Calm Calm - N/A   Overcast
6:53 AM 37.0 °F 34.5 °F 35.1 °F 93% 30.22 in 2.0 mi SSW 3.5 mph - N/A   Overcast
7:04 AM 37.4 °F - 35.6 °F 93% 30.21 in 1.8 mi Calm Calm - N/A   Overcast
7:27 AM 37.4 °F - 35.6 °F 93% 30.21 in 1.2 mi Calm Calm - N/A   Overcast
7:53 AM 37.9 °F 35.5 °F 36.0 °F 93% 30.24 in 1.2 mi SW 3.5 mph - N/A   Overcast
8:28 AM 37.4 °F 34.9 °F 37.4 °F 100% 30.22 in 1.2 mi SSW 3.5 mph - N/A   Overcast
8:53 AM 39.0 °F 36.8 °F 37.9 °F 96% 30.24 in 1.5 mi SSW 3.5 mph - N/A   Overcast
9:53 AM 41.0 °F 37.1 °F 39.9 °F 96% 30.25 in 1.8 mi SSW 5.8 mph - N/A   Overcast
10:53 AM 43.0 °F 39.5 °F 39.9 °F 89% 30.24 in 2.5 mi SSW 5.8 mph - N/A   Overcast
11:07 AM 44.6 °F 41.4 °F 39.2 °F 81% 30.21 in 3.0 mi SW 5.8 mph - N/A   Overcast
11:53 AM - - - N/A% 30.20 in - North - - N/A   Unknown
12:44 PM 44.6 °F 39.7 °F 35.6 °F 71% 30.18 in 9.0 mi SSW 9.2 mph - N/A   Overcast
12:53 PM 45.0 °F 40.6 °F 36.0 °F 71% 30.20 in 9.0 mi SSW 8.1 mph - N/A   Overcast
1:53 PM 45.0 °F 40.6 °F 36.0 °F 71% 30.19 in 8.0 mi SW 8.1 mph - N/A   Overcast
2:53 PM 44.1 °F 39.5 °F 35.1 °F 71% 30.17 in 7.0 mi SW 8.1 mph - N/A   Overcast
3:53 PM 44.1 °F 40.1 °F 34.0 °F 68% 30.17 in 7.0 mi South 6.9 mph - N/A   Overcast
4:53 PM 43.0 °F 39.5 °F 35.1 °F 74% 30.17 in 7.0 mi SSW 5.8 mph - N/A   Overcast
5:53 PM 42.1 °F 40.2 °F 34.0 °F 73% 30.17 in 7.0 mi South 3.5 mph - N/A   Mostly Cloudy
6:01 PM 41.0 °F 39.0 °F 33.8 °F 76% 30.15 in 7.0 mi South 3.5 mph - N/A   Scattered Clouds
6:53 PM 39.0 °F 35.7 °F 33.1 °F 79% 30.16 in 7.0 mi South 4.6 mph - N/A   Clear
7:53 PM 37.9 °F 33.5 °F 33.1 °F 83% 30.16 in 7.0 mi South 5.8 mph - N/A   Clear
8:53 PM 37.9 °F 34.4 °F 33.1 °F 83% 30.15 in 6.0 mi South 4.6 mph - N/A   Haze
9:53 PM 37.0 °F 33.3 °F 32.0 °F 82% 30.15 in 6.0 mi SSE 4.6 mph - N/A   Haze
10:53 PM 37.0 °F 32.4 °F 33.1 °F 86% 30.14 in 6.0 mi South 5.8 mph - N/A   Clear
11:53 PM 36.0 °F 33.3 °F 32.0 °F 86% 30.13 in 5.0 mi South 3.5 mph - N/A   Clear